Regional Weather Roundup
Issued by NWS

Home | Current Version | Previous Version | Graphics & Text | Print | Product List | Glossary On
Versions: 1 2 3 4 5 6 7 8 9 10 11 12 13 14 15 16 17 18 19 20 21 22 23 24 25 26 27 28 29 30 31 32 33 34 35 36 37 38 39 40 41 42 43 44 45 46 47 48 49 50
000
ASUS43 KLMK 052010
RWRKY
KENTUCKY REGIONAL WEATHER ROUNDUP
NATIONAL WEATHER SERVICE LOUISVILLE KY
300 PM EST MON DEC 05 2016

NOTE "FAIR" INDICATES FEW OR NO CLOUDS BELOW 12,000 FEET
WITH NO SIGNIFICANT WEATHER AND/OR OBSTRUCTIONS TO VISIBILITY.

KYZ001>023-026-027-061>063-070>075-052100-
WESTERN AND SOUTH CENTRAL KENTUCKY

CITY           SKY/WX    TMP DP  RH WIND       PRES   REMARKS
PADUCAH        CLOUDY    43  35  73 E9        29.94F
HENDERSON      PTSUNNY   43  34  70 E7        29.99F
OWENSBORO      PTSUNNY   43  35  73 SE10      30.00F
HOPKINSVILLE   CLOUDY    42  38  87 E13       29.94F
BOWLING GREEN  CLOUDY    44  38  79 MISG      30.00F
GLASGOW        CLOUDY    43  39  84 E7        30.00S
$$

KYZ024-025-028>034-038-045-046-053-052100-
NORTH CENTRAL KENTUCKY

CITY           SKY/WX    TMP DP  RH WIND       PRES   REMARKS
LOUISVILLE/SDF CLOUDY    45  33  63 SE8       30.02F
LOUISVILLE/LOU CLOUDY    44  33  65 E7        30.04F
FORT KNOX      CLOUDY    42  34  72 NE8       29.99F
$$

KYZ035>037-039>044-047>052-055>060-089>105-052100-
NORTHEAST KENTUCKY

CITY           SKY/WX    TMP DP  RH WIND       PRES   REMARKS
LEXINGTON      CLOUDY    45  34  65 E7        30.02F
COVINGTON      CLOUDY    43  33  68 NE6       30.02F
FRANKFORT      PTSUNNY   44  34  67 E9        30.02F
$$

KYZ054-064>069-076>088-106>120-052100-
SOUTHEAST KENTUCKY

CITY           SKY/WX    TMP DP  RH WIND       PRES   REMARKS
JACKSON        PTSUNNY   47  37  68 CALM      30.01F
LONDON         CLOUDY    48  38  68 E5        30.00F
SOMERSET       CLOUDY    46  37  71 E5        30.01F
MIDDLESBORO    CLOUDY    50  43  76 CALM      29.99F
MONTICELLO     CLOUDY    48  41  76 VRB6      29.99F
$$





USA.gov is the U.S. government's official web portal to all federal, state and local government web resources and services.